This demonstration page uses our WeatherBlox Daily Observations layout. Learn more.

Left ArrowRight Arrow

39.95238, -75.16362

Hourly Observations for August 18, 2016

Temp ( °F °C ) Dew Point ( °F °C ) Humidity (%) Winds ( mph kmh ) Pressure ( in mb ) Visibility ( mi km ) Precip ( " mm )
12:38 am 00:38 Cloudy with Heavy Rain 77 25 68 20 74 74 NNW 5 7 30.03 1017 6 10 0.00 0.00
12:54 am 00:54 Cloudy with Rain 77 25 67 19.4 71 71 NW 3 6 30.04 1017 6 10 0.08 2.03
1:27 am 01:27 Cloudy with Rain 75 23.9 70 21.1 84 84 NNE 5 7 30.03 1017 8 13 0.05 1.27
1:54 am 01:54 Cloudy with Light Rain 75 23.9 69 20.6 82 82 Calm 30.02 1017 9 14 0.07 1.78
2:54 am 02:54 Cloudy with Light Rain 75 23.9 71 21.7 88 88 WSW 5 7 30.01 1016 9 14 0.01 0.25
3:54 am 03:54 Cloudy 75 23.9 71 21.7 88 88 SW 7 11 30.01 1016 9 14 0.00 0.03
4:07 am 04:07 Cloudy 74 23.3 71 21.7 91 91 WSW 7 11 30.00 1016 10 16 0.00 0.00
4:54 am 04:54 Cloudy 74 23.3 72 22.2 94 94 WSW 3 6 29.99 1016 10 16 0.00 0.00
5:54 am 05:54 Cloudy 75 23.9 70 21.1 84 84 WNW 9 15 30.01 1016 10 16 0.00 0.03
6:24 am 06:24 Cloudy with Light Rain 73 23 72 22 94 94 WNW 7 11 30.00 1016 8 13 0.00 0.00
6:30 am 06:30 Cloudy with Light Rain 73 23 72 22 94 94 NW 6 9 30.00 1016 6 10 0.00 0.00
6:35 am 06:35 Mostly Cloudy with Light Rain 74 23.3 71 21.7 91 91 NW 7 11 30.00 1016 8 13 0.00 0.03
6:54 am 06:54 Cloudy 74 23.3 71 21.7 91 91 Calm 30.01 1016 10 16 0.00 0.03
7:54 am 07:54 Mostly Cloudy 75 23.9 71 21.7 88 88 Calm 30.01 1016 10 16 0.00 0.00
8:00 am 08:00 Cloudy 75 23.9 71 21.7 88 88 NNW 5 7 30.03 1017 10 16 0.00 0.00
8:22 am 08:22 Cloudy 76 24.4 71 21.7 85 85 W 7 11 30.03 1017 10 16 0.00 0.00
8:54 am 08:54 Cloudy 76 24.4 71 21.7 85 85 N 5 7 30.02 1017 10 16 0.00 0.00
9:40 am 09:40 Mostly Cloudy 76 24.4 71 21.7 85 85 NW 5 7 30.03 1017 10 16 0.00 0.00
9:54 am 09:54 Mostly Cloudy 77 25 71 21.7 82 82 NW 6 9 30.01 1016 10 16 0.00 0.00
10:37 am 10:37 Mostly Cloudy 78 25.6 72 22.2 82 82 NE 6 9 30.03 1017 10 16 0.00 0.00
10:54 am 10:54 Mostly Cloudy 78 25.6 70 21.1 76 76 NNW 8 13 30.02 1017 10 16 0.00 0.00
11:40 am 11:40 Mostly Cloudy 81 27 70 21 70 70 N 9 15 30.00 1016 10 16 0.00 0.00
11:54 am 11:54 Mostly Cloudy 81 27.2 69 20.6 67 67 N 8 13 30.01 1016 10 16 0.00 0.00
12:54 pm 12:54 Mostly Cloudy 83 28.3 67 19.4 59 59 VRB 6 9 30.00 1016 10 16 0.00 0.00
1:54 pm 13:54 Partly Cloudy 84 28.9 66 18.9 55 55 W 8 13 30.00 1016 10 16 0.00 0.00
2:54 pm 14:54 Partly Cloudy 85 29.4 65 18.3 51 51 NW 12 19 29.97 1015 10 16 0.00 0.00
3:54 pm 15:54 Partly Cloudy 87 30.6 64 17.8 46 46 NNW 10 17 29.96 1015 10 16 0.00 0.00
4:54 pm 16:54 Partly Cloudy 88 31.1 64 17.8 45 45 VRB 5 7 29.94 1014 10 16 0.00 0.00
5:54 pm 17:54 Partly Cloudy 88 31.1 64 17.8 45 45 WNW 9 15 29.93 1014 10 16 0.00 0.00
6:54 pm 18:54 Mostly Sunny 87 30.6 64 17.8 46 46 WNW 8 13 29.93 1013 10 16 0.00 0.00
7:54 pm 19:54 Partly Cloudy 86 30 64 17.8 48 48 WNW 8 13 29.94 1014 10 16 0.00 0.00
8:54 pm 20:54 Partly Cloudy 84 28.9 67 19.4 57 57 SW 7 11 29.95 1014 10 16 0.00 0.00
9:54 pm 21:54 Mostly Cloudy 84 28.9 68 20 59 59 SSW 5 7 29.96 1015 10 16 0.00 0.00
10:47 pm 22:47 Mostly Cloudy with Light Rain 79 26.1 67 19.4 67 67 WNW 18 30 29.97 1015 10 16 0.00 0.03
10:54 pm 22:54 Mostly Cloudy with Light Rain 78 25.6 69 20.6 74 74 NW 18 30 29.97 1015 10 16 0.00 0.03
11:10 pm 23:10 Cloudy with Light Rain 76 24.4 69 20.6 79 79 NW 15 24 29.97 1015 4 6 0.01 0.25
11:27 pm 23:27 Cloudy with Rain 75 23.9 70 21.1 84 84 NW 15 24 30.00 1016 5 8 0.10 2.54
11:35 pm 23:35 Cloudy with Light Rain 75 23.9 70 21.1 84 84 NW 9 15 29.97 1015 7 11 0.12 3.05
11:43 pm 23:43 Cloudy with Thunderstorms 75 23.9 71 21.7 88 88 NNW 7 11 29.97 1015 10 16 0.12 3.05
11:54 pm 23:54 Cloudy with Thunderstorms 74 23.3 71 21.7 91 91 NE 6 9 29.96 1014 10 16 0.12 3.05

Powered by AerisWeather